Weather in Khushenga

Russia / Zabaykalsky Krai     51°26′00″N   110°55′20″E
temp.,
°C
wind,
m/s
gust,
m/s
humid.,
%
clouds,
%
prec.,
mm/h
press.,
hPa
HPBL,
m
29 november, mon
mon2900:00−16wsw1290100 0.0 103450
03:00−14wsw1385100 0.0 103290
06:00−14wsw2388100 0.0 103193
09:00−15wsw239881 0.0 103266
12:00−11wsw388177 0.0 1031492
15:00−8w5106588 0.1 10281166
18:00−11w41088100 0.1 1030597
21:00−11wsw3793100 0.1 1030255
30 november, tue
tue3000:00−10w41289100 0.4 1028937
03:00−11w5128697 0.6 1028939
06:00−11w5128694 0.1 1028863
09:00−11wnw5118099 0.2 1028946
12:00−9wnw4106947 0.0 10281006
15:00−8wnw496798 0.1 10271104
18:00−10wnw398486 0.0 1028446
21:00−14wsw229757 0.0 103039
1 december, wed
wed100:00−14wsw239866 0.0 102948
03:00−13wsw259882 0.0 1027108
06:00−14wsw369410 0.0 1026103
09:00−13wsw379110 0.0 1024125
12:00−7wsw413606 0.0 1019595
15:00−2w7204573 0.0 10141798
18:00−3w92446100 0.0 10141751
21:00−6wnw82080100 0.1 10151782
2 december, thu
thu200:00−6wnw92077100 0.6 10152183
03:00−9nw7177131 0.8 10181590
06:00−11wnw6157129 0.0 10201203
09:00−11wnw6137483 0.0 10201025
12:00−9w61265100 0.0 10201033
15:00−8wnw6116661 0.0 10181050
18:00−9w51372100 0.0 1020868
21:00−8w41283100 0.0 1019758
3 december, fri
fri300:00−7wsw41389100 0.2 1017824
03:00−6w51590100 0.4 1016964
06:00−5w6158799 0.3 10151098
09:00−5w5147025 0.4 1015828
12:00−3wsw4126358 0.0 1016847
15:00−3wsw5136510 0.0 1016830
18:00−5wsw41077100 0.0 1018293
21:00−7wsw3685100 0.0 1020126